Coldstream, Australia

10:06 PM AEST on August 17, 2017 (GMT +1000)
Coldstream

Weather History for YMEN - November, 2013

Change the Weather History Date:

Wednesday, November 13, 2013

  Actual Average Record
Temperature  
Mean Temperature 52 °F -  
Max Temperature 57 °F - - ()
Min Temperature 48 °F - - ()
Degree Days  
Heating Degree Days 12    
Growing Degree Days 2 (Base 50)    
Moisture  
Dew Point 50 °F    
Average Humidity 91    
Maximum Humidity 100    
Minimum Humidity 77    
Precipitation  
Precipitation 0.51 in - - ()
Sea Level Pressure  
Sea Level Pressure 29.92 in    
Wind  
Wind Speed 11 mph ()    
Max Wind Speed 18 mph    
Max Gust Speed -    
Visibility 5.7 miles    
Events Rain    
T = Trace of Precipitation, MM = Missing Value Source: Averaged Metar Reports

Daily Weather History Graph

Daily Weather History Graph

Search for Another Location

Airport or City:

Trip Planner

Search our weather history database for the weather conditions in past years. The results will help you decide how hot, cold, wet, or windy it might be!

Date:

Astronomy

Nov. 13, 2013 Rise Set
Actual Time 6:00 AM AEDT 8:05 PM AEDT
Civil Twilight 5:31 AM AEDT 8:34 PM AEDT
Nautical Twilight 4:55 AM AEDT 9:10 PM AEDT
Astronomical Twilight 4:17 AM AEDT 9:48 PM AEDT
Moon 3:45 PM AEDT (11/13) 3:12 AM AEDT (11/13)
Length of Visible Light 15h 03m
Length of Day
14h 05m
Waxing Gibbous, 79% of the Moon is Illuminated
Nov 13
Waxing Gibbous
Nov 18
Full
Nov 26
Last Quarter
Dec 3
New
Dec 10
First Quarter

Hourly Weather History & Observations

Time (AEDT) Temp. Dew Point Humidity Pressure Visibility Wind Dir Wind Speed Gust Speed Precip Events Conditions
12:00 AM 49 °F 48 °F 95% 29.96 in - West 8.1 mph - -  
12:00 AM 50.0 °F 48.2 °F 94% 29.98 in 6.2 mi WSW 12.7 mph - N/A   Drizzle
1:00 AM 50.0 °F 48.2 °F 94% 29.95 in 6.2 mi WSW 13.8 mph - N/A   Overcast
1:30 AM 50.0 °F 48.2 °F 94% 29.92 in 5.0 mi WSW 12.7 mph - N/A Rain Rain
2:00 AM 48.2 °F 48.2 °F 100% 29.92 in 6.2 mi West 13.8 mph - N/A   Light Drizzle
2:20 AM 48.2 °F 48.2 °F 100% 29.92 in 6.2 mi West 13.8 mph - N/A   Light Drizzle
3:00 AM 50 °F 49 °F 94% 29.90 in - West 6.9 mph - -  
3:00 AM 50.0 °F 48.2 °F 94% 29.89 in 6.2 mi West 12.7 mph - N/A   Overcast
3:57 AM 50.0 °F 48.2 °F 94% 29.89 in 6.2 mi West 10.4 mph - N/A Rain Light Rain Showers
4:00 AM 50.0 °F 48.2 °F 94% 29.89 in 6.2 mi WNW 10.4 mph - N/A Rain Light Rain Showers
5:00 AM 50.0 °F 48.2 °F 94% 29.89 in 6.2 mi WNW 9.2 mph - N/A   Overcast
6:00 AM 49 °F 47 °F 92% 29.90 in - NW 8.1 mph - -  
6:00 AM 50.0 °F 48.2 °F 94% 29.89 in 6.2 mi WNW 12.7 mph - N/A   Drizzle
7:00 AM 48.2 °F 48.2 °F 100% 29.89 in 6.2 mi WNW 13.8 mph - N/A Rain Rain
8:00 AM 50.0 °F 48.2 °F 94% 29.89 in 4.3 mi NW 13.8 mph - N/A Rain Light Rain
8:20 AM 50.0 °F 48.2 °F 94% 29.92 in 3.7 mi WNW 15.0 mph - N/A Rain Light Rain
8:30 AM 50.0 °F 50.0 °F 100% 29.92 in 5.0 mi WNW 15.0 mph - N/A Rain Light Rain
9:00 AM 50 °F 49 °F 93% 29.93 in - NNW 9.2 mph - -  
9:00 AM 51.8 °F 50.0 °F 94% 29.92 in 3.7 mi WNW 15.0 mph - N/A Rain Light Rain Showers
9:30 AM 51.8 °F 50.0 °F 94% 29.92 in 4.3 mi WNW 15.0 mph - N/A Rain Light Rain Showers
9:35 AM 51.8 °F 50.0 °F 94% 29.92 in 4.3 mi WNW 15.0 mph - N/A Rain Light Rain Showers
9:50 AM 53.6 °F 50.0 °F 88% 29.92 in 3.7 mi WNW 15.0 mph - N/A Rain Light Rain Showers
10:00 AM 53.6 °F 50.0 °F 88% 29.92 in - WNW 13.8 mph - N/A Rain Light Rain Showers
10:30 AM 53.6 °F 50.0 °F 88% 29.92 in 6.2 mi WNW 18.4 mph - N/A Rain Light Rain Showers
10:35 AM 53.6 °F 50.0 °F 88% 29.92 in 6.2 mi WNW 17.3 mph - N/A Rain Light Rain Showers
11:03 AM 53.6 °F 50.0 °F 88% 29.92 in 3.7 mi WNW 17.3 mph - N/A Rain Light Rain Showers
11:24 AM 53.6 °F 50.0 °F 88% 29.92 in 5.6 mi WNW 15.0 mph - N/A Rain Light Rain Showers
12:00 PM 53 °F 51 °F 90% 29.92 in - NW 13.8 mph - -  
12:00 PM 55.4 °F 50.0 °F 82% 29.92 in 6.2 mi West 17.3 mph - N/A   Overcast
1:00 PM 57.2 °F 50.0 °F 77% 29.89 in 6.2 mi West 17.3 mph - N/A   Overcast
2:00 PM 55.4 °F 51.8 °F 88% 29.92 in 6.2 mi West 16.1 mph - N/A Rain Light Rain
3:00 PM 53 °F 51 °F 91% 29.94 in - WNW 10.4 mph - -  
3:00 PM 53.6 °F 50.0 °F 88% 29.92 in 6.2 mi West 16.1 mph - N/A Rain Light Rain
4:00 PM 53.6 °F 51.8 °F 94% 29.92 in 6.2 mi WNW 12.7 mph - N/A Rain Rain
5:00 PM 55.4 °F 51.8 °F 88% 29.92 in 6.2 mi WNW 12.7 mph - N/A   Overcast
6:00 PM 54 °F 52 °F 90% 29.93 in - NNW 8.1 mph - -  
6:00 PM 55.4 °F 51.8 °F 88% 29.92 in 6.2 mi NW 10.4 mph - N/A Rain Light Rain Showers
7:00 PM 55.4 °F 51.8 °F 88% 29.92 in 6.2 mi NW 10.4 mph - N/A   Overcast
8:00 PM 55.4 °F 51.8 °F 88% 29.92 in 6.2 mi WNW 10.4 mph - N/A Rain Light Rain Showers
9:00 PM 53 °F 51 °F 91% 29.96 in - NNW 8.1 mph - -  
9:00 PM 55.4 °F 51.8 °F 88% 29.95 in 6.2 mi WNW 12.7 mph - N/A Rain Light Rain Showers
10:00 PM 55.4 °F 51.8 °F 88% 29.95 in 6.2 mi West 12.7 mph - N/A   Overcast
11:02 PM 55.4 °F 51.8 °F 88% 29.95 in 6.2 mi West 12.7 mph - N/A   Overcast
11:15 PM 55.4 °F 51.8 °F 88% 29.95 in 6.2 mi West 12.7 mph - N/A   Overcast